Find Starlink 2191

NORAD ID: 48565 Int'l Des: 2021-041 Owner: SPXS Country: US Constellation: starlink decayed
LEOCIRCULAR

Re-entered — Jul 30, 2025

Loading 3D Globe...

About Starlink 2191

Starlink 2191 (NORAD 48565) is a starlink constellation satellite (v1.0) launched May 15, 2021 by SPXS of US. It re-entered the atmosphere on Jul 30, 2025. with a mass of 260.00 kg.

About Starlink 2191

Description loading...

Altitude History

Loading altitude history...

Two-Line Element Set

1 48565U 21041N 25211.54714566 .18720107 12626-4 29921-3 0 9998
2 48565 53.0087 306.4603 0007067 291.2562 169.9544 16.47833897233600
Epoch: Jul 30, 2025 • Age: 7620 hours

Current Status

Position data unavailable
Launch Date May 15, 2021
Age 5 years
Decay Date Jul 30, 2025
Type internet

Technical Details

Classification Payload
Mass 260.00 kg
Dry Mass 248.00 kg
Total Mass 260.00 kg
Length 0.20 m
Diameter 2.80 m
Span 9.00 m
Shape Box + pan
Manufacturer SPXS
Bus Type Starlink
Phase Status Reentered
Owner/State SPXS/US

Most Searched